Regional Weather Roundup
Issued by NWS Memphis, TN

Home | Current Version | Previous Version | Text Only | Print | Product List | Glossary On
Versions: 1 2 3 4 5 6 7 8 9 10 11 12 13 14 15 16 17 18 19 20 21 22 23 24 25 26 27 28 29 30 31 32 33 34 35 36 37 38 39 40 41 42 43 44 45 46 47 48 49 50
868
ASUS44 KMEG 272010
RWRMEG
MEMPHIS CWA HOURLY WEATHER ROUNDUP
NATIONAL WEATHER SERVICE MEMPHIS TN
300 PM CDT FRI MAY 27 2016

...WEST TENNESSEE...

CITY           SKY/WX    TMP DP  RH WIND       PRES   REMARKS
MEMPHIS INTL   CLOUDY    81  67  62 S13G21    29.90S
NWS MEMPHIS      N/A     83 N/A N/A MISG        N/A
JACKSON        CLOUDY    80  69  69 SE12G20   29.92F
LEXINGTON      MOSUNNY   81  64  57 S10       29.95F
DYERSBURG      CLOUDY    79  64  61 S9G20     29.90F
UNION CITY     SUNNY     81  70  69 S12       29.90F
PARIS          SUNNY     81  64  57 S14       29.94F


...EASTERN ARKANSAS...

CITY           SKY/WX    TMP DP  RH WIND       PRES   REMARKS
JONESBORO      CLOUDY    73  70  90 S14       29.87F
WEST MEMPHIS   CLOUDY    77  70  79 S7        29.89R
BATESVILLE     CLOUDY    73  68  83 SE8G16    29.84S
NEWPORT        LGT RAIN  73  72  97 S16       29.87F
WALNUT RIDGE   CLOUDY    75  68  78 S20       29.85F
BLYTHEVILLE    CLOUDY    75  68  78 SW8       29.89F
SEARCY         CLOUDY    75  72  88 S15       29.84F
STUTTGART      CLOUDY    72  66  83 S13       29.86F
PINE BLUFF     PTSUNNY   76  72  87 S8        29.85F
MONTICELLO     TSTM      71  69  93 SW8       29.87F


...NORTH MISSISSIPPI...

CITY           SKY/WX    TMP DP  RH WIND       PRES   REMARKS
TUPELO         PTSUNNY   86  58  38 SE18G25   29.92F
OXFORD         PTSUNNY   79  64  61 SE12G21   29.93F
BATESVILLE     CLOUDY    81  66  60 S7        29.91S
OLIVE BRANCH   CLOUDY    79  72  78 SE13      29.90F
TUNICA         CLOUDY    79  68  69 S13       29.90R
CLARKSDALE     MOSUNNY   84  70  61 S12G20    29.88S
CORINTH        PTSUNNY   82  63  51 S9G15     29.93F
GREENWOOD      CLOUDY    81  66  60 SE13      29.89F
COLUMBUS       CLOUDY    86  65  48 S17G26    29.94F
STARKVILLE     SUNNY     86  61  42 S15G26    29.93F
GOLDEN TRIANGL PTSUNNY   82  63  51 S14G23    29.94F


...SOUTHEAST MISSOURI...

CITY           SKY/WX    TMP DP  RH WIND       PRES   REMARKS
KENNETT        CLOUDY    73  70  88 SW15      29.87F
WEST PLAINS    LGT RAIN  72  67  84 S8        29.83F
POPLAR BLUFF   LGT RAIN  70  68  93 S13       29.86F
CAPE GIRARDEAU CLOUDY    78  70  76 S10       29.85F


...NORTHWEST ALABAMA...

CITY           SKY/WX    TMP DP  RH WIND       PRES   REMARKS
MUSCLE SHOALS  CLOUDY    84  60  44 S14       29.99F


...MIDDLE TENNESSEE...

CITY           SKY/WX    TMP DP  RH WIND       PRES   REMARKS
NASHVILLE      PTSUNNY   89  61  38 S13G21    29.98F
CLARKSVILLE    SUNNY     84  63  49 SW15      29.96F
COLUMBIA       SUNNY     84  68  58 S12       29.97F


...WESTERN KENTUCKY...

CITY           SKY/WX    TMP DP  RH WIND       PRES   REMARKS
PADUCAH        PTSUNNY   82  67  60 S15G26    29.89F
FORT CAMPBELL  MOSUNNY   84  61  46 S15G31    29.96F


...CENTRAL ARKANSAS...

CITY           SKY/WX    TMP DP  RH WIND       PRES   REMARKS
LITTLE ROCK    CLOUDY    81  65  58 S14       29.81F


SKY/WX REPORTED AS FAIR MEANS FEW OR NO CLOUDS BELOW
12 THOUSAND FEET.





USA.gov is the U.S. government's official web portal to all federal, state and local government web resources and services.